Regional Weather Roundup
Issued by NWS

Home | Current Version | Previous Version | Text Only | Print | Product List | Glossary On
Versions: 1 2 3 4 5 6 7 8 9 10 11 12 13 14 15 16 17 18 19 20 21 22 23 24 25 26 27 28 29 30 31 32 33 34 35 36 37 38 39 40 41 42 43 44 45 46 47 48 49 50
000
ASUS46 KSTO 131604
RWRCA

NORTHERN AND CENTRAL CA REGIONAL WEATHER ROUNDUP
NATIONAL WEATHER SERVICE SACRAMENTO CA
800 AM PST WED DEC 13 2017

NOTE: FAIR INDICATES FEW OR NO CLOUDS BELOW 12,000 FEET WITH NO
SIGNIFICANT WEATHER AND/OR OBSTRUCTIONS TO VISIBILITY.

CAZ001-003-131700-
NORTHWEST AREA

CITY           SKY/WX    TMP DP  RH WIND       PRES   REMARKS
CRESCENT CITY  CLEAR     42  36  79 CALM      30.22S
UKIAH          CLEAR     30  26  85 CALM      30.22R
$$

CAZ006-505>513-131700-
BAY AREA

CITY           SKY/WX    TMP DP  RH WIND       PRES   REMARKS
SANTA ROSA     PTCLDY    29  28  96 CALM      30.18S
SAN RAFAEL     N/A       38  MM  MM MISG
NAPA           CLEAR     33  31  92 NW3       30.20R
CONCORD        CLEAR     35  30  82 CALM      30.21R
OAKLAND CITY   N/A      MM  MM  MM MISG
OAKLAND        PTCLDY    41  40  96 CALM      30.18R
SAN FRAN CITY  N/A       MM  MM  MM MISG
SAN FRAN ARPT  PTCLDY    47  43  86 CALM      30.17R
LIVERMORE      CLEAR     32  27  81 E3        30.17F
HAYWARD        CLEAR     40  28  62 CALM      30.17S
REDWOOD CITY   N/A       MM  MM  MM MISG
MOFFETT ARPT   CLEAR     39  34  82 CALM      30.17F
SAN JOSE ARPT  PTCLDY    39  33  79 E5        30.17F
$$
CAZ034-037-514>518-131700-
CENTRAL COAST

CITY           SKY/WX    TMP DP  RH WIND       PRES   REMARKS
WATSONVILLE    CLEAR     39  30  70 CALM      30.15R
SALINAS        CLEAR     40  20  44 E9        30.16R WCI  34
MONTEREY       CLEAR     44  20  38 SE6       30.13R
SAN LUIS OBISP PTCLDY    46  14  27 CALM      30.06R
SANTA MARIA    CLEAR     41  18  39 SE5       30.06R
$$
CAZ015-016-131700-
NORTHERN SACRAMENTO VALLEY

CITY           SKY/WX    TMP DP  RH WIND       PRES   REMARKS
REDDING        PTCLDY    29  26  89 CALM      30.21S
RED BLUFF      CLEAR     32  27  81 NW9       30.22S WCI  24
OROVILLE       CLEAR     35  34  96 CALM      30.21S
$$
CAZ016>018-131700-
SOUTHERN SACRAMENTO VALLEY

CITY           SKY/WX    TMP DP  RH WIND       PRES   REMARKS
AUBURN         CLEAR     46  25  42 E3        30.17S
BEALE AFB      CLEAR     36  31  83 NE5       30.18S WCI  32
LINCOLN        FAIR      30  30 100 CALM      30.19S
MARYSVILLE     CLEAR     31  29  92 CALM      30.21S
SAC INTL ARPT  FOG       31  31 100 NW5       30.20S VSB 1/2 WCI  26
MATHER AIRPORT NOT AVBL
DOWNTOWN SAC   N/A       37  MM  MM MISG
SAC EXEC ARPT  CLEAR     32  32 100 CALM      30.20S FOG
VACAVILLE      CLEAR     30  30 100 CALM      30.21S
TRAVIS AFB     CLEAR     29  28  96 CALM      30.18S
$$
CAZ019>021-131700-
SAN JOAQUIN VALLEY

CITY           SKY/WX    TMP DP  RH WIND       PRES   REMARKS
STOCKTON       CLEAR     32  32 100 S3        30.19F FOG
MODESTO        CLEAR     34  33  96 CALM      30.19F FOG
MERCED         CLEAR     32  28  85 CALM      30.20R FOG
LEMOORE        CLEAR     32  22  66 NW3       30.21R
FRESNO         CLEAR     36  33  89 E3        30.20S FOG
HANFORD        FOG       31  29  92 CALM      30.21R VSB 3/4
PORTERVILLE    CLEAR     32  27  81 CALM      30.20R HAZE
BAKERSFIELD    CLOUDY    40  27  59 CALM      30.17S HAZE
$$
CAZ011-012-071-131700-
NORTHERN MOUNTAINS

CITY           SKY/WX    TMP DP  RH WIND       PRES   REMARKS
YREKA          PTCLDY    18  16  92 E3        30.38F
MOUNT SHASTA   CLEAR     33  20  58 VRB5      30.30S WCI  29
ALTURAS        PTCLDY    16  11  80 W3        30.36R
$$
CAZ011-012-071-131700-
SIERRA NEVADA MTNS

CITY           SKY/WX    TMP DP  RH WIND       PRES   REMARKS
BLUE CANYON    CLEAR     60 -19   3 N5        30.27S
TRUCKEE          N/A     10   7  85 CALM      30.38R
TAHOE VLY ARPT FOG       19  17  92 S3        30.37F VSB<1/4
MAMMOTH LAKES  FAIR      13   3  63 CALM      30.37R
$$




USA.gov is the U.S. government's official web portal to all federal, state and local government web resources and services.